Skip Page Navigation
NASA JPL Caltech
NASA Logo - Jet Propulsion Laboratory + View the NASA Portal
+ Center for Near-Earth Object Studies
JPL Home Earth Solar System Stars & Galaxies Technology
JPL Solar System Dynamics
BODIES ORBITS EPHEMERIDES TOOLS PHYSICAL DATA DISCOVERY FAQ SITE MAP
JPL Small-Body Database Browser
Search: [ help ]  
27426 Brettlawrie (2000 EP199)
Classification: Main-belt Asteroid          SPK-ID: 2027426
Ephemeris | Orbit Diagram | Orbital Elements | Mission Design | Physical Parameters | Discovery Circumstances | Close-Approach Data ]

[ show orbit diagram ]
Orbital Elements at Epoch 2459000.5 (2020-May-31.0) TDB
Reference: JPL 21 (heliocentric ecliptic J2000)
 Element Value Uncertainty (1-sigma)   Units 
e .06584947268569023 4.9042e-08  
a 2.475813425851077 1.1726e-08 au
q 2.312782417290631 1.1981e-07 au
i 13.67000429181307 4.6802e-06 deg
node 284.6517775112216 2.1708e-05 deg
peri 292.1055494344137 4.2405e-05 deg
M 12.64031642466098 3.549e-05 deg
tp 2458950.539043719650
(2020-Apr-11.03904372)
0.00014032 TDB
period 1422.903007857933
3.90
1.0109e-05
2.768e-08
d
yr
n .2530038927543988 1.7975e-09 deg/d
Q 2.638844434411522 1.2499e-08 au
  Orbit Determination Parameters
   # obs. used (total)      818  
   data-arc span      10353 days (28.34 yr)  
   first obs. used      1992-02-12  
   last obs. used      2020-06-17  
   planetary ephem.      DE431  
   SB-pert. ephem.      SB431-N16  
   condition code      0  
   norm. resid. RMS      .5739  
   source      ORB  
   producer      Otto Matic  
   solution date      2020-Jun-23 19:34:04  

Additional Information
 Earth MOID = 1.33671 au 
 Jupiter MOID = 2.48924 au 
 T_jup = 3.439 
[ show covariance matrix ]

Ephemeris | Orbit Diagram | Orbital Elements | Mission Design | Physical Parameters | Discovery Circumstances | Close-Approach Data ]

Physical Parameter Table
Parameter Symbol Value Units Sigma Reference Notes
absolute magnitude H 15.0   n/a MPO426071  

27426 Brettlawrie           Discovered 2000 Mar. 1 by the Catalina Sky Survey.
Brett Lawrie (b. 1959) is an engineer at the University of Arizona's Lunar and Planetary Laboratory and Steward Observatory. He is instrumental in the design, fabrication and testing of instruments and hardware for large world-class ground-based observatories, analytical laboratories and numerous NASA spacecraft missions.
NOTE: some special characters may not display properly (any characters within {} are an attempt to place the proper accent above a character)
Reference: MPC batch dated 2016-05-21Last Updated: 2016-05-24

[ show close-approach data ]
Alternate Designations
 2000 EP199 = 1992 CN7 = 1996 AW18 
Ephemeris | Orbit Diagram | Orbital Elements | Mission Design | Physical Parameters | Discovery Circumstances | Close-Approach Data ]
ABOUT SSD CREDITS/AWARDS PRIVACY/COPYRIGHT GLOSSARY LINKS
FirstGov 2020-Aug-03 19:18 UT
(server date/time)  
NASA Home Page
Site Manager:   Ryan S. Park
Webmaster  Alan B. Chamberlin